Location: Kennington
(51.1500°N, 0.8833°E)
Time: 05:45:19
(UTC+00:00)

Daily predictions for brighter satellites

Satellite Brightness Start Highest point End
(mag) Time Altitude Azimuth Time Altitude Azimuth Time Altitude Azimuth
Cosmos 1908 Rocket 3.8 00:00:03 10° NNW 00:04:26 55° W 00:05:05 50° SW
Cosmos 1937 Rocket 4.0 00:04:14 31° WSW 00:06:27 53° WNW 00:11:32 10° NNE
Thor Agena Rocket 3.5 00:01:32 10° NNE 00:06:47 88° ESE 00:08:23 47° SSW
Cosmos 1818 4.0 00:02:24 10° NW 00:07:34 43° WSW 00:08:17 41° SW
Cosmos 1821 Rocket 4.0 00:01:54 10° N 00:08:20 84° W 00:10:54 40° S
Cosmos 2082 Rocket 4.3 00:06:40 10° WNW 00:08:55 12° W 00:10:10 12° WSW
Cosmos 1300 Rocket 4.3 00:06:18 10° N 00:10:37 47° ENE 00:11:53 36° ESE
EO 1 Delta rocket 4.3 00:09:20 40° SE 00:11:07 69° ENE 00:16:56 10° N
ERBS 3.8 00:08:06 10° WNW 00:09:49 27° WNW 00:09:49 27° WNW
Cosmos 1048 Rocket 3.9 00:09:04 10° NNW 00:14:26 79° WSW 00:15:59 47° S
Cosmos 1934 Rocket 4.2 00:08:19 10° N 00:14:29 66° ENE 00:17:19 33° SSE
SL-16 R/B 4.0 00:10:09 10° ESE 00:15:35 32° ENE 00:21:03 10° N
Resurs 1-4 Rocket 4.2 00:12:20 10° NE 00:15:36 16° E 00:18:10 12° ESE
Cosmos 2298 Rocket 4.2 00:15:04 45° SSE 00:16:24 59° ESE 00:21:38 10° NNE
Cosmos 1356 Rocket 3.4 00:12:46 10° N 00:17:04 81° ENE 00:17:48 60° SSE
Gbstr 26 Del rocket 4.0 00:13:50 10° WNW 00:20:35 53° SSW 00:22:28 39° SSE
USA 281 3.5 00:23:02 18° SE 00:28:01 68° ENE 00:34:33 10° NNW
NOSS 2-1 (D) 4.4 00:24:02 10° NW 00:28:29 61° NE 00:34:43 10° ESE
COSMOS 2455 4.3 00:24:38 10° NNW 00:30:11 36° NE 00:35:41 10° ESE
COSMOS 2487 4.1 00:27:29 10° N 00:30:29 28° ENE 00:31:48 22° E
Cosmos 1461 3.1 00:29:47 51° SW 00:30:59 88° WNW 00:35:38 10° NE
SL-24 R/B 4.3 00:29:49 41° SE 00:31:24 71° ENE 00:35:44 10° N
Cosmos 1703 Rocket 4.1 00:34:26 41° WSW 00:35:23 49° WNW 00:39:41 10° N
Cosmos 1782 Rocket 4.0 00:31:31 10° NNW 00:35:49 47° W 00:36:26 44° WSW
Cosmos 2221 Rocket 4.1 00:37:15 40° SE 00:38:27 51° E 00:42:54 10° NNE
Cosmos 1378 3.0 00:39:12 68° WSW 00:39:25 70° WNW 00:43:08 10° N
BREEZE-M DEB (TANK) 4.4 00:31:38 10° WNW 00:41:08 35° SW 00:41:24 35° SW
Cosmos 44 Rocket 3.5 00:40:22 10° NW 00:45:38 77° NE 00:49:28 18° SE
RESURS DK-1 2.6 00:41:40 10° NW 00:45:42 50° WSW 00:45:44 50° WSW
Cosmos 2150 Rocket 4.0 00:45:15 43° SSW 00:47:07 88° WNW 00:52:28 10° NNE
SL-27 R/B 3.1 00:44:11 10° NNW 00:46:46 41° WNW 00:46:46 41° WNW
Cosmos 2369 Rocket 2.4 00:45:13 33° SW 00:47:44 66° WNW 00:53:23 10° NNE
Cosmos 1805 3.1 00:45:27 10° NNW 00:49:22 75° W 00:49:47 66° SSW
Nadezhda 3 Rocket 4.2 00:46:54 34° SW 00:49:37 61° WNW 00:55:48 10° N
Lacrosse 5 3.7 00:50:13 16° SE 00:50:41 16° ESE 00:53:45 10° E
Cosmos 1733 3.0 00:47:25 10° N 00:51:13 87° W 00:51:38 69° S
Cosmos 1726 4.0 00:48:46 10° NNE 00:51:58 26° ENE 00:53:55 17° ESE
Meteor 1-13 Rocket 4.3 00:51:58 38° SW 00:54:06 67° WNW 00:59:38 10° N
PSLV R/B 4.0 00:50:40 10° N 00:55:03 54° WNW 00:56:12 41° WSW
Cosmos 1766 3.2 00:51:41 10° N 00:55:41 88° E 00:56:24 59° SSE
Cosmos 1943 Rocket 3.3 00:53:24 17° WSW 00:57:11 37° NW 01:02:22 10° NNE
Helios 1B rocket 4.1 00:55:01 10° NE 00:58:31 26° E 01:00:03 21° SE
Cosmos 1867 3.5 00:59:35 39° SW 01:01:44 85° SE 01:07:15 10° NE
EO 1 Del DPAF 3.8 00:58:18 10° N 01:01:52 43° WNW 01:02:29 39° W
Cosmos 1378 Rocket 4.4 01:01:32 30° SE 01:03:04 42° E 01:07:09 10° NNE
Okean 3 4.1 01:04:39 37° WSW 01:05:39 45° WNW 01:09:45 10° N
Cosmos 1607 4.0 01:03:30 32° SW 01:06:47 90° SE 01:13:20 10° NE
Cosmos 2263 4.5 01:04:33 31° SW 01:07:21 65° WNW 01:13:09 10° NNE
Okean 1-7 4.5 01:07:06 22° W 01:08:21 25° WNW 01:11:57 10° NNW
Helios 1A 3.1 01:08:14 49° SW 01:08:59 57° W 01:13:06 10° NNW
ATLAS CENTAUR R/B 1.0 01:09:09 59° SSE 01:09:31 64° SE 01:13:18 10° NE
Cosmos 1400 Rocket 3.1 01:06:13 10° N 01:10:21 68° ENE 01:11:54 36° SSE
Cosmos 1066 Rocket 4.4 01:08:39 34° SW 01:11:08 64° WNW 01:16:48 10° N
Sich 1 Rocket 4.2 01:07:48 10° NNW 01:12:06 41° W 01:13:02 37° WSW
Meteor 1-23 Rocket 4.3 01:10:37 35° SSW 01:13:11 80° WNW 01:19:03 10° N
Okean 1 Rocket 3.4 01:08:58 10° N 01:13:21 61° ENE 01:15:30 28° SSE
Cosmos 1605 Rocket 4.0 01:07:22 10° NNW 01:13:35 76° W 01:16:50 31° S
SeaSat 1 3.3 01:10:40 10° NNE 01:15:20 43° NW 01:18:06 22° WSW
Cosmos 1470 3.2 01:13:43 10° N 01:17:34 56° ENE 01:19:17 30° SE
Cosmos 1125 Rocket 3.7 01:16:06 34° SW 01:18:20 64° WNW 01:23:34 10° NNE
USA 81 4.1 01:15:42 10° NNW 01:20:56 63° W 01:23:04 35° SSW
Cosmos 1656 Rocket 4.0 01:20:25 28° WSW 01:23:12 56° NW 01:28:40 10° NNE
Aureole 2 3.9 01:22:07 10° NNW 01:25:05 85° WSW 01:25:08 84° SW
NOSS 2-1 (E) 4.1 01:21:00 10° NW 01:25:50 71° SW 01:32:40 10° SSE
Cosmos 2173 Rocket 4.4 01:22:14 10° N 01:28:18 59° ENE 01:34:01 12° SSE
Cosmos 1674 Rocket 3.5 01:27:05 39° S 01:28:43 87° ESE 01:33:13 10° N
USA 215 4.3 01:29:38 23° SW 01:29:38 23° SW 01:34:38 10° WNW
Cosmos 2227 Rocket 3.4 01:26:25 10° NNW 01:31:49 43° NE 01:37:11 10° ESE
CZ-2D R/B 2.4 01:26:49 10° NNE 01:32:14 62° ESE 01:35:15 26° S
Cosmos 2297 Rocket 2.9 01:30:00 10° NNW 01:35:35 56° NE 01:41:09 10° SE
Okean 2 Rocket 4.0 01:32:58 10° NNW 01:36:54 33° W 01:37:51 30° WSW
Cosmos 2151 Rocket 4.2 01:32:45 10° NNW 01:37:02 42° W 01:38:17 34° SW
ISS -3.9 01:36:23 47° WSW 01:37:15 87° S 01:40:39 10° E
Cosmos 1842 3.1 01:37:36 44° SSW 01:38:44 77° W 01:42:38 10° N
Cosmos 1802 Rocket 4.4 01:37:57 10° N 01:44:04 61° ENE 01:50:08 10° SSE
Meteor 2-10 4.1 01:41:01 10° NNW 01:46:27 66° W 01:49:24 26° S
MOZ.5/SAFIR/RUBIN 5/SL-8 4.3 01:45:09 32° SW 01:46:36 41° W 01:51:01 10° NNW
Cosmos 2100 Rocket 4.0 01:42:30 10° N 01:48:49 84° E 01:54:15 15° S
ADEOS Rocket 4.0 01:43:15 10° SE 01:50:30 62° ENE 01:58:10 10° N
ADEOS II 2.9 01:47:28 10° NNE 01:52:32 45° E 01:56:30 16° SSE
Cosmos 2251 Rocket 3.7 01:50:04 10° NNW 01:55:21 72° ENE 02:00:34 10° SSE
Resurs 1-4 Rocket 2.1 01:50:50 10° NNE 01:56:07 86° WNW 01:59:15 26° SSW
Meteor 1-29 3.5 01:53:19 10° NNE 01:56:38 50° E 01:58:10 27° SSE
Cosmos 1455 Rocket 3.6 01:52:25 10° N 01:56:42 56° ENE 02:00:49 11° SSE
USA 276 4.3 01:57:32 15° SE 01:57:32 15° SE 01:59:15 10° ESE
SL-16 R/B 2.6 01:54:34 21° S 01:58:53 60° WSW 02:05:07 10° NNW
IRS-1D 4.5 01:55:25 10° NNE 02:00:31 45° E 02:05:00 13° SSE
DELTA 2 DEB (DPAF) 4.3 01:56:55 12° SSE 02:01:02 72° ENE 02:05:30 10° NNW
Cosmos 724 4.5 02:00:37 23° SW 02:04:41 78° NW 02:10:59 10° NE
Cosmos 1953 2.9 02:00:47 10° N 02:04:42 55° ENE 02:08:37 10° SSE
Cosmos 1674 3.9 02:02:22 15° SSE 02:05:11 37° E 02:08:45 10° NNE
COSMOS 2487 3.7 02:02:28 10° NW 02:05:05 24° W 02:05:05 24° W
Cosmos 2219 3.3 02:05:51 10° NNW 02:11:36 83° ENE 02:17:20 10° SSE
USA 281 4.0 02:09:53 21° SW 02:12:58 31° WSW 02:18:42 10° NW
COSMOS 2455 2.8 02:10:34 10° NW 02:16:33 67° WSW 02:22:29 10° SSE
Cosmos 1727 Rocket 4.3 02:13:22 21° SSW 02:17:32 57° WNW 02:23:49 10° N
Cosmos 1707 2.8 02:17:33 27° SSW 02:19:30 63° WNW 02:23:19 10° N
CZ-3B R/B 3.8 02:05:32 13° SW 02:23:12 75° SSE 02:27:50 10° ENE
Okean 2 4.2 02:23:02 22° SW 02:25:09 38° WNW 02:29:04 10° N
Cosmos 1656 4.1 02:21:09 16° S 02:25:22 55° ESE 02:30:45 10° NE
Cosmos 1726 3.2 02:23:54 10° NNW 02:27:06 28° W 02:28:21 23° SW
Cosmos 1975 Rocket 3.0 02:28:12 19° SSW 02:31:21 83° W 02:35:43 10° N
Lacrosse 5 2.0 02:29:24 20° SW 02:32:52 65° SE 02:37:55 10° ENE
Cosmos 2369 Rocket 4.2 02:28:54 10° WNW 02:32:54 19° NNW 02:36:55 10° NNE
Helios 1B rocket 3.3 02:30:01 10° N 02:33:51 38° WNW 02:36:21 19° SW
Cosmos 1908 3.2 02:30:33 10° NNW 02:34:26 86° W 02:38:20 10° S
Cosmos 2263 Rocket 4.3 02:31:24 10° NNW 02:36:22 30° NE 02:41:20 10° ESE
CZ-4C R/B 3.5 02:32:10 10° SSE 02:36:31 85° WSW 02:40:45 10° NNW
Cosmos 1140 Rocket 4.1 02:32:05 10° NNW 02:37:15 61° ENE 02:42:25 10° SE
Cosmos 1758 4.2 02:33:40 10° NNW 02:37:20 32° W 02:39:29 19° SW
ARIANE 5 R/B 3.9 02:32:52 10° NNE 02:37:39 36° E 02:42:22 10° SSE
Meteor 1-16 Rocket 4.3 02:35:36 10° NNW 02:41:31 70° W 02:47:22 10° S
Spot 1 4.2 02:37:17 10° SSE 02:41:53 79° WSW 02:46:48 10° NNW
TSX-5 3.3 02:41:50 10° NW 02:45:06 70° WSW 02:48:53 10° SSE
Cosmos 1626 2.7 02:41:37 10° S 02:45:14 56° E 02:48:52 10° NNE
Geosat FO 4.4 02:42:31 10° NNE 02:45:53 89° ESE 02:48:23 18° SSW
Cosmos 1315 Rocket 3.5 02:42:34 10° NNW 02:46:11 34° W 02:48:49 16° SSW
ARGOS Delta rocket 4.0 02:41:52 10° N 02:46:17 55° WNW 02:49:58 15° SSW
Cosmos 614 Rocket 4.0 02:42:24 10° NNW 02:47:25 60° WSW 02:52:26 10° S
Cosmos 1725 Rocket 4.0 02:41:28 10° NNW 02:47:42 69° W 02:53:53 10° S
APEX 3.8 02:44:38 10° NNW 02:48:41 76° ENE 02:53:47 10° SE
ATLAS CENTAUR R/B 3.0 02:45:38 10° W 02:48:44 24° NNW 02:51:58 10° NNE
Cosmos 2061 Rocket 4.1 02:45:45 10° NNW 02:51:56 60° W 02:58:09 10° S
AQUA 4.4 02:47:26 10° N 02:51:57 43° WNW 02:55:39 14° SW
Timation 2 Rocket 3.9 02:46:17 10° NW 02:52:07 56° WSW 02:57:58 10° S
Iridium 2 4.4 02:49:46 10° SSE 02:53:28 53° E 02:57:11 10° NNE
Cosmos 371 Rocket 3.3 02:51:15 14° SSW 02:55:31 89° WNW 03:00:28 10° NNE
Lacrosse 4 Rocket 3.4 02:52:24 10° SSE 02:56:04 25° ESE 02:59:43 10° ENE
Meteor 1-28 Rocket 3.7 02:54:16 12° SSW 02:57:24 40° W 03:00:56 10° NNW
NPP 4.5 02:53:23 10° N 02:58:19 38° WNW 03:02:45 12° SW
Cosmos 332 Rocket 4.1 02:53:30 10° S 02:58:20 65° ESE 03:03:10 10° NNE
SL-14 R/B 3.9 02:55:55 10° S 02:59:43 56° E 03:03:36 10° NNE
Cosmos 1697 Rocket 3.2 02:56:05 10° S 03:01:32 56° ESE 03:07:02 10° NE
CBERS-1 4.1 02:58:05 10° NNE 03:03:12 73° WNW 03:08:17 10° SSW
Cosmos 2233 Rocket 4.0 02:57:05 10° NNW 03:03:21 79° W 03:09:29 10° S
Cosmos 2016 Rocket 4.4 02:59:42 10° NNW 03:05:39 46° W 03:11:30 10° SSW
IRS-P3 4.3 03:02:52 10° NNE 03:08:15 79° ESE 03:13:36 10° SSW
Cosmos 407 Rocket 3.5 03:04:44 10° NNW 03:10:03 71° WSW 03:15:23 10° SSE
CZ-2C R/B 4.1 03:06:31 10° NNE 03:11:08 34° E 03:15:47 10° SSE
Cosmos 1340 4.2 03:07:59 10° SSE 03:11:25 35° E 03:14:52 10° NNE
Cosmos 1980 Rocket 3.5 03:06:41 10° S 03:11:52 38° ESE 03:17:04 10° NE
CZ-2D R/B 3.5 03:07:26 10° N 03:11:54 27° WNW 03:16:19 10° WSW
ISS -3.7 03:10:44 10° W 03:14:08 87° NNE 03:17:32 10° E
Cosmos 2227 Rocket 2.6 03:10:37 10° NW 03:15:52 41° WSW 03:21:07 10° S
Cosmos 1025 Rocket 3.2 03:11:39 10° SSW 03:15:54 57° WNW 03:20:13 10° N
CZ-2D R/B 4.3 03:11:56 10° NNE 03:16:14 55° E 03:20:34 10° S
USA 129 2.0 03:15:40 10° SSE 03:17:28 41° ENE 03:18:37 10° N
CZ-4B R/B 3.6 03:13:23 10° NNE 03:18:20 81° ESE 03:23:23 10° SSW
Cosmos 2297 Rocket 3.0 03:14:28 10° NW 03:19:22 31° WSW 03:24:15 10° SSW
Cosmos 2369 4.3 03:14:08 10° S 03:19:44 59° ESE 03:25:23 10° NE
IDEFIX/ARIANE 42P 2.7 03:17:36 10° N 03:22:49 66° WNW 03:28:02 10° SSW
GP-B 3.5 03:19:07 10° N 03:23:22 45° W 03:27:35 10° SSW
Cosmos 1544 Rocket 4.3 03:19:34 10° NNW 03:23:31 34° W 03:27:28 10° SSW
Aureole 2 Rocket 4.1 03:25:20 10° N 03:27:46 30° ENE 03:30:12 10° SE
Cosmos 2082 3.8 03:22:17 10° NW 03:27:53 60° WSW 03:33:28 10° SSE
Cosmos 1606 Rocket 4.1 03:26:26 10° N 03:30:48 63° ENE 03:35:09 10° SSE
ADEOS II 3.1 03:27:26 10° N 03:32:06 33° WNW 03:36:44 10° SW
USA 276 2.6 03:29:58 10° WSW 03:33:02 48° SSE 03:36:07 10° E
Cosmos 405 3.1 03:30:38 10° N 03:34:11 82° E 03:37:41 10° SSE
Resurs 1-4 Rocket 3.9 03:31:50 10° NNW 03:35:15 18° NW 03:38:39 10° W
Cosmos 2056 Rocket 3.8 03:30:13 10° SSW 03:35:17 68° ESE 03:40:23 10° NNE
Cosmos 1954 Rocket 4.1 03:30:26 10° NNW 03:35:43 87° WSW 03:41:01 10° SSE
ADEOS Rocket 4.1 03:29:37 10° SSW 03:36:20 37° W 03:43:26 10° NNW
